Theta_e
351 348 342 340 336 334 333 335 335 336 336 337 337 338 339 339 339 338 336 334 333 334 334 334 333 331 328 325 323 322 321 318 316 317 318 320 320 320 322 324 328 328 329 328 324 321 318 316 316 316 315 316 317 317 317 317 316 313 312 311 310 309 309 309 309 311 312 314 313 311 311 312 313 313 309 310 314 314 320 320 309 312 324 329 329
350 347 343 340 336 335 334 334 333 334 334 335 336 337 339 339 340 338 336 334 334 334 334 334 334 332 329 325 323 323 324 322 321 321 322 323 322 320 321 324 328 332 335 333 327 323 318 315 316 314 315 316 317 317 317 317 317 315 314 313 312 311 313 314 316 318 320 322 319 315 311 311 311 312 310 307 309 310 313 311 306 313 324 327 327
349 346 341 339 336 335 334 334 332 332 332 333 334 337 339 339 340 338 336 334 334 334 334 334 335 332 328 325 323 324 325 325 325 326 328 327 325 321 320 322 326 330 333 331 325 321 318 316 315 314 314 316 317 317 316 316 316 315 315 314 314 317 320 323 327 329 329 328 325 322 315 310 311 313 313 309 308 310 308 306 306 315 323 324 325
348 345 341 338 335 335 335 333 331 331 331 332 333 336 339 340 340 338 336 334 334 334 335 335 335 331 328 325 322 323 326 327 327 328 329 329 329 325 321 321 323 325 327 327 324 321 319 317 314 314 314 315 316 316 316 315 315 315 315 314 316 320 325 330 333 334 334 333 332 331 324 312 311 312 311 311 309 310 310 307 306 313 318 319 324
347 345 340 336 335 335 335 333 331 331 331 331 332 336 339 339 339 338 336 334 334 334 335 336 334 330 327 323 321 322 326 329 328 328 328 327 329 330 328 326 325 323 322 323 322 321 320 316 314 315 314 314 315 315 315 314 315 315 315 315 318 322 329 333 335 335 335 336 335 334 331 318 310 311 312 311 310 310 313 315 312 312 314 316 323
348 343 338 335 335 335 335 334 333 333 332 331 332 335 339 339 339 338 336 334 334 335 336 337 333 327 323 321 320 322 326 330 330 329 329 326 326 330 332 333 332 325 321 320 320 321 320 316 314 315 314 314 314 314 314 314 314 314 315 316 320 326 332 335 336 336 336 336 335 335 334 324 310 311 317 314 311 310 312 319 320 319 317 320 325
347 342 337 336 335 336 336 334 334 333 332 331 332 335 338 339 339 338 336 334 334 335 337 336 330 322 318 318 319 321 325 329 331 330 329 326 324 327 331 332 330 324 319 318 318 319 321 317 315 314 314 313 314 314 314 314 314 313 315 318 322 327 332 336 336 336 336 336 336 336 335 328 313 310 317 315 311 310 310 314 320 321 319 322 325
347 340 337 336 335 336 336 335 334 333 332 332 332 334 336 337 338 336 334 334 334 335 337 334 325 318 315 315 316 318 321 326 328 328 327 326 323 323 324 324 322 319 317 316 317 318 320 318 315 315 314 314 313 314 314 314 314 314 315 318 323 328 332 335 337 337 336 336 337 337 336 329 316 308 312 313 311 310 311 311 315 319 319 321 324
345 340 338 336 335 336 336 335 334 333 334 333 333 334 334 335 335 334 334 334 335 336 336 330 320 318 316 314 314 313 315 319 321 322 324 325 322 319 320 321 319 319 318 316 315 317 319 318 316 314 313 314 313 313 314 314 313 313 314 318 323 328 333 334 335 335 336 336 336 337 333 326 317 310 309 309 310 310 311 310 311 314 318 321 323
344 341 339 336 335 335 336 336 335 334 334 333 334 333 334 333 333 333 333 334 335 335 333 324 318 320 319 317 316 314 314 315 317 319 322 323 322 321 323 324 323 322 322 318 315 316 318 319 317 315 314 313 314 314 314 314 313 313 314 317 322 327 333 334 334 332 334 335 334 336 333 326 319 311 308 308 309 311 311 311 309 311 316 319 322
345 343 340 338 336 336 336 337 336 334 334 334 334 333 333 332 332 332 332 334 333 330 326 320 320 322 321 319 318 316 316 317 319 319 321 323 324 327 329 330 329 327 326 322 318 317 317 318 318 316 315 314 313 314 314 314 314 314 314 316 320 326 333 335 335 334 334 334 334 335 332 325 317 310 308 308 309 310 310 311 310 310 311 313 318
346 346 342 339 337 337 338 337 336 334 333 334 334 333 332 332 331 332 332 332 330 326 323 321 322 323 322 320 319 318 318 319 321 321 321 325 328 331 333 334 332 331 329 326 323 320 318 317 316 317 316 314 313 313 314 314 314 315 315 316 320 326 333 336 335 335 335 335 333 332 330 324 316 311 309 308 308 309 310 311 310 310 310 308 310
347 348 344 341 339 338 338 338 337 334 333 333 333 333 332 332 331 331 330 329 327 325 324 324 325 326 325 324 322 321 321 322 323 323 325 328 330 331 333 333 330 328 329 326 324 323 321 317 316 318 316 314 315 314 314 314 314 316 317 317 321 326 332 335 335 335 335 334 333 331 328 324 317 313 310 308 308 308 309 310 310 310 310 310 309
348 348 345 341 340 339 338 338 337 334 334 333 333 332 332 331 331 330 329 328 327 327 326 325 329 331 331 330 329 326 324 324 323 324 326 328 329 329 329 329 325 323 324 322 320 321 321 319 318 319 317 315 315 314 315 315 315 316 318 318 320 325 329 333 335 334 333 333 334 329 326 320 315 316 313 309 308 308 308 309 310 310 310 310 310
348 348 345 341 339 339 337 337 336 335 333 333 332 332 332 331 331 330 329 328 328 327 325 327 333 334 334 335 332 329 328 328 325 325 324 324 326 325 325 324 322 320 321 320 319 318 318 319 320 320 318 316 315 315 315 315 316 317 319 320 322 326 330 332 334 335 334 334 333 330 328 321 314 316 314 311 309 307 308 308 309 310 310 310 309
348 348 344 340 338 338 337 335 335 334 332 332 332 332 332 331 331 329 328 329 328 326 327 331 334 335 336 335 333 331 331 331 329 327 326 325 324 323 322 321 320 320 319 319 319 318 317 318 320 320 318 317 316 315 315 315 315 316 319 321 323 327 333 334 334 336 336 335 334 332 328 319 314 316 314 312 310 309 308 307 308 308 309 310 309
348 347 343 339 336 337 336 335 334 332 332 331 332 332 332 331 330 329 328 327 328 328 330 333 335 336 336 335 334 334 333 332 331 330 328 327 325 323 322 321 320 320 320 319 319 319 318 317 317 317 318 317 316 315 314 314 314 315 317 320 323 328 334 336 335 335 335 335 334 333 327 320 317 315 314 314 312 311 309 308 307 307 308 309 310
348 346 344 339 335 336 336 335 333 332 331 331 332 332 331 330 331 332 327 326 329 331 333 334 334 334 334 334 335 335 334 333 332 331 330 329 328 325 323 322 322 321 321 321 320 319 319 318 317 316 317 317 316 316 314 315 315 316 317 319 322 327 333 335 335 334 334 335 334 334 332 325 321 316 314 314 313 312 311 309 307 307 307 308 309
347 346 345 339 335 336 336 335 333 332 332 332 332 331 330 332 334 333 329 328 332 333 334 334 333 332 332 334 336 335 334 333 333 332 331 330 330 329 325 323 323 322 322 322 321 321 320 319 318 317 316 317 317 317 317 317 317 318 319 322 323 326 330 331 334 334 333 334 335 335 333 328 323 318 314 314 314 313 312 311 309 307 307 307 308
347 346 344 338 336 337 337 335 334 334 334 333 333 333 333 335 335 334 331 332 334 333 334 333 331 332 332 333 334 335 334 333 333 333 332 330 331 331 328 325 323 322 322 322 322 322 322 320 320 318 317 318 319 319 319 320 320 320 321 324 324 324 327 329 332 334 333 333 334 333 331 328 324 321 316 313 313 314 313 312 310 309 307 307 307
346 345 344 340 339 340 337 336 335 335 334 334 335 335 336 337 336 334 334 334 334 333 333 332 330 331 332 333 334 334 334 333 333 333 332 331 331 330 328 326 324 323 323 322 323 322 322 322 321 320 319 319 319 318 319 320 320 322 323 324 325 324 324 329 334 334 333 333 333 331 328 326 324 322 319 316 314 313 314 313 311 310 308 307 307
346 345 344 342 342 342 340 337 337 336 335 335 336 336 336 336 335 334 335 335 334 333 333 332 331 331 331 334 334 333 332 332 332 331 332 331 330 328 328 326 324 323 323 323 323 323 323 322 322 321 320 320 319 319 317 319 320 321 323 324 325 326 325 329 334 334 332 332 331 330 327 325 324 323 321 319 316 314 313 314 312 310 309 308 307
345 345 344 342 341 341 341 338 337 337 337 336 336 336 336 335 335 335 335 335 335 333 332 330 331 332 331 334 334 331 331 331 332 332 332 332 330 328 327 327 325 324 323 323 323 322 322 322 321 320 321 320 320 321 320 323 324 321 321 323 326 330 331 331 332 333 333 332 331 330 327 324 324 323 321 321 319 317 315 313 313 311 310 309 308
344 344 343 341 341 341 340 338 337 337 336 336 336 336 335 334 334 334 334 335 335 334 332 330 332 333 332 334 333 329 330 331 331 331 331 331 330 329 328 328 326 324 323 322 323 323 322 321 321 320 320 320 323 327 328 329 330 327 321 320 327 333 335 333 331 332 334 332 331 331 328 324 323 322 321 321 320 319 317 314 313 313 311 309 309
344 343 343 342 341 341 339 338 338 336 335 335 336 336 335 334 334 333 334 335 335 334 333 332 333 333 333 335 333 330 330 330 331 332 331 331 330 329 329 329 328 326 324 323 326 327 325 324 324 321 321 324 327 331 332 332 332 331 326 322 330 335 335 334 331 332 334 333 332 331 328 325 323 322 321 320 320 320 318 316 314 313 311 309 309
343 342 341 342 341 340 338 338 337 336 336 336 335 336 335 334 333 333 334 334 334 334 334 333 334 333 333 334 333 331 330 330 331 332 332 331 330 330 330 331 331 330 328 325 328 329 329 331 331 328 329 330 331 332 331 332 332 331 330 328 332 335 334 334 332 332 333 333 333 331 328 326 325 323 322 321 321 320 318 317 314 313 312 310 309
342 341 339 340 341 339 338 338 338 338 337 335 335 335 335 334 332 333 334 334 333 334 334 333 332 331 330 331 331 331 330 329 330 331 331 331 331 330 330 330 331 331 329 327 329 331 331 333 333 331 331 331 332 332 331 331 331 331 331 331 331 332 333 333 332 332 333 332 333 332 328 327 327 326 324 322 322 321 319 318 316 313 312 311 309
342 342 340 339 338 337 337 338 337 338 336 333 334 334 334 333 332 333 333 332 332 332 332 330 330 330 328 329 330 331 331 331 331 331 331 331 330 330 330 329 329 329 329 328 330 331 330 329 329 328 329 331 332 331 330 330 330 330 330 330 330 331 332 332 332 331 332 332 332 332 329 327 328 327 325 323 321 322 320 320 318 314 312 312 310
343 343 340 338 337 336 336 337 336 336 334 332 331 333 333 333 332 332 331 331 331 331 331 330 328 328 329 329 329 332 333 332 332 331 331 331 330 329 329 328 327 329 330 329 330 330 329 328 327 326 328 331 331 329 329 329 328 329 329 329 329 329 331 331 332 332 332 331 331 331 329 327 329 328 326 323 323 324 323 321 319 315 313 313 312
343 342 339 336 336 336 337 336 336 335 334 331 330 331 332 332 331 330 330 331 331 331 332 330 325 326 329 327 327 331 333 332 331 331 330 330 329 329 329 328 327 329 330 329 330 330 328 328 328 327 327 329 329 328 328 328 328 327 328 328 328 328 329 330 331 332 332 330 330 331 328 327 330 330 327 325 325 325 324 320 318 317 315 314 314
342 340 337 335 335 335 336 335 334 335 333 331 330 329 329 330 329 328 331 334 333 331 331 329 325 327 329 327 327 328 330 331 331 329 328 328 328 328 328 328 329 330 330 329 330 330 328 328 328 328 328 328 328 329 328 328 329 327 326 328 327 326 328 329 329 331 331 331 331 330 328 328 330 330 328 326 324 324 322 320 318 317 316 316 319
339 338 336 335 334 334 334 333 334 333 332 333 333 330 330 330 327 329 333 334 333 331 329 326 326 328 328 329 329 328 330 331 331 330 328 326 327 327 327 328 329 330 330 329 329 330 329 328 328 328 328 328 328 329 328 328 329 327 326 326 327 327 328 329 329 330 331 331 331 331 328 329 331 330 329 327 325 323 320 320 321 318 317 317 320
338 337 335 334 333 334 334 333 334 333 332 334 335 333 333 331 328 330 332 332 332 329 327 327 327 330 330 330 331 330 330 331 330 331 330 328 327 327 327 328 328 328 329 329 329 329 328 327 328 328 327 327 328 329 328 327 328 328 327 325 327 328 328 328 328 329 330 330 331 331 329 329 330 330 329 327 326 323 319 321 322 318 320 319 316
338 336 334 334 333 334 334 334 334 333 332 333 334 333 333 333 331 330 331 331 330 326 329 332 331 332 331 330 331 329 330 330 330 330 330 329 329 328 329 329 328 327 328 328 328 328 327 327 328 328 327 326 327 328 327 328 329 328 328 327 327 327 328 328 328 328 329 330 332 331 329 328 328 328 329 328 326 325 321 319 319 316 319 318 314
336 334 334 334 333 335 335 334 333 332 331 331 332 332 331 331 329 330 332 333 330 328 332 334 332 332 331 329 330 329 330 330 329 330 330 329 329 330 329 329 328 328 327 327 326 327 328 328 328 327 326 325 326 327 327 328 328 328 328 328 327 328 329 329 328 329 329 330 331 331 330 327 326 327 327 328 327 326 323 319 316 316 319 319 318
335 335 335 333 333 335 334 334 332 331 331 331 330 329 331 330 325 329 332 332 332 332 332 332 332 330 329 329 329 329 329 330 329 329 329 329 330 329 328 329 329 328 327 327 327 327 329 328 328 327 325 326 327 327 327 327 326 326 328 328 329 329 329 328 328 328 329 330 330 330 329 327 325 326 326 326 326 326 325 322 317 316 319 319 320
335 335 335 333 332 334 334 333 331 331 331 331 329 327 330 330 327 329 331 331 333 332 331 331 330 329 329 329 328 329 329 329 329 329 329 329 329 329 328 328 328 328 327 327 328 328 328 327 326 325 325 326 328 328 327 327 326 325 327 330 330 329 328 328 328 328 329 329 328 328 328 327 326 326 326 326 326 326 327 325 321 318 318 319 320
335 336 336 332 331 332 333 332 331 330 330 331 330 329 329 328 328 332 332 332 333 332 332 332 330 330 330 329 327 328 328 328 329 329 329 329 329 329 329 329 328 328 327 327 327 328 328 326 325 324 325 326 328 328 327 327 327 326 328 329 330 330 329 330 330 330 329 327 325 326 327 327 327 325 324 324 326 327 327 326 325 322 321 322 323
336 337 335 331 331 331 331 332 330 329 327 328 327 326 327 326 328 332 332 331 332 332 332 332 330 330 330 328 327 327 327 327 329 329 329 329 329 329 329 328 328 327 328 327 328 327 327 326 325 326 326 326 326 327 326 326 327 327 328 327 328 330 331 330 330 329 330 328 324 324 325 326 325 324 323 322 324 326 326 326 327 325 324 324 325
336 337 333 328 330 331 331 330 330 329 326 328 326 323 326 328 329 332 332 331 331 331 331 329 329 328 327 326 325 327 328 328 328 329 329 328 328 328 328 329 327 327 328 328 328 326 325 326 327 326 327 327 327 327 326 326 326 326 326 326 327 329 330 330 330 329 330 328 324 324 325 325 324 324 323 322 324 326 326 326 327 326 326 326 326
334 336 332 329 331 330 329 330 330 329 326 327 327 325 327 328 330 331 331 330 329 330 329 328 328 328 328 327 323 324 328 329 328 328 328 328 328 328 328 328 327 328 328 327 327 326 324 326 327 327 327 326 327 327 327 327 326 325 325 326 327 327 328 328 329 329 329 328 324 323 325 325 325 325 324 323 324 325 325 325 326 326 326 327 326
332 333 331 330 330 328 327 328 328 327 325 326 327 326 327 328 330 331 331 329 328 329 328 326 324 323 325 326 325 325 324 324 324 324 326 326 327 326 326 327 326 326 326 325 326 326 325 326 326 327 328 327 327 327 328 328 327 327 327 327 327 328 328 327 328 329 329 328 326 324 323 324 325 326 325 325 325 324 324 325 326 326 327 326 326
332 332 330 328 327 326 326 328 328 327 327 328 327 326 327 329 330 329 329 329 329 329 327 322 319 318 320 321 323 325 323 322 323 325 324 321 322 323 323 324 323 322 322 323 325 326 326 326 326 328 328 327 327 328 328 327 327 328 328 328 328 328 328 328 328 329 329 328 328 326 324 324 325 325 325 325 325 325 325 324 323 325 327 326 326
331 331 330 328 326 326 325 327 329 327 327 326 325 325 327 329 330 328 328 329 328 327 323 321 321 322 323 321 322 325 324 323 324 325 322 320 321 322 321 321 322 324 324 323 325 326 326 326 326 327 328 327 327 328 327 326 327 328 329 328 328 328 328 329 329 328 328 328 327 326 325 326 325 324 325 325 325 326 326 324 324 325 326 326 326
332 331 331 329 326 326 324 326 327 324 324 324 323 325 326 327 326 325 329 329 325 324 322 322 324 323 320 321 324 324 323 323 322 323 321 320 320 322 323 322 321 324 325 324 325 325 325 325 326 327 327 327 327 327 326 325 326 328 328 328 328 328 328 328 329 329 328 327 327 326 325 326 326 324 325 326 326 326 326 325 325 325 324 324 324
332 331 329 327 325 325 324 325 326 322 320 322 324 325 324 322 320 324 328 325 323 324 323 323 325 323 321 323 325 324 323 323 323 324 323 320 319 320 324 322 320 322 323 324 324 325 325 324 325 327 327 327 327 327 326 326 326 327 327 327 327 328 328 327 328 329 328 327 327 326 326 326 326 325 325 325 326 326 326 326 325 325 324 324 324
331 329 326 325 324 324 323 324 325 321 320 321 323 324 323 320 319 322 324 323 325 326 323 324 325 324 324 325 324 323 324 323 322 321 319 320 321 322 324 323 322 322 322 323 324 324 324 323 324 326 326 326 326 327 327 326 327 327 327 327 327 327 327 327 328 328 328 327 326 326 327 326 326 325 325 325 325 325 326 326 325 324 323 323 323
329 327 325 324 324 324 322 323 324 321 321 323 323 324 323 318 317 320 324 327 328 325 323 325 324 322 322 322 323 323 323 322 320 319 316 317 319 321 323 322 322 322 322 323 323 323 323 322 322 324 324 325 326 327 326 326 326 326 327 327 326 326 327 327 327 327 327 327 327 326 326 326 326 326 326 325 325 325 325 326 325 323 322 323 324
328 327 325 323 324 324 323 324 324 321 323 324 322 322 320 316 318 324 327 330 328 324 322 321 319 320 321 323 324 323 323 322 319 319 318 317 317 318 320 321 320 321 321 321 321 321 321 319 318 320 322 323 324 325 325 325 325 325 325 325 325 325 326 326 326 326 327 327 326 326 326 325 325 325 325 325 325 324 324 325 324 323 321 322 323
328 326 325 323 323 325 324 323 323 320 322 323 320 318 315 315 323 327 329 330 326 322 321 317 317 322 323 323 321 320 320 319 318 318 319 319 317 314 316 319 319 320 320 319 319 319 319 318 316 316 318 320 321 322 324 324 324 324 323 323 324 324 324 324 324 324 325 326 326 326 325 324 324 324 323 323 323 323 323 323 323 322 320 320 320
328 327 327 324 324 326 324 321 321 320 321 321 320 319 317 318 323 327 329 328 324 322 320 314 315 319 320 320 319 319 319 316 315 315 314 315 315 311 311 314 317 319 319 319 319 319 318 319 319 316 315 318 319 319 321 321 321 321 320 320 322 323 323 323 323 324 324 325 326 326 325 323 322 322 321 321 322 321 321 321 320 320 318 317 317
Wind_Speed
15 16 19 20 20 21 20 20 21 20 20 19 18 18 18 17 16 15 15 15 15 14 14 13 12 12 13 12 11 12 12 12 13 14 14 13 12 11 11 11 10 9 10 10 10 10 10 11 11 10 9 9 10 12 14 14 15 17 18 19 19 19 19 20 20 21 21 20 19 17 15 16 16 17 18 17 14 12 12 11 12 14 16 15 14
17 17 19 21 20 21 21 21 21 20 20 19 18 18 18 17 16 15 15 15 15 14 13 13 12 12 13 12 11 11 13 12 12 12 12 11 10 10 10 10 9 9 10 10 10 9 10 11 11 9 9 9 11 13 13 13 15 16 18 18 18 20 20 21 22 21 22 21 21 20 18 17 16 17 18 18 16 13 12 13 15 16 17 15 14
17 20 20 21 20 21 21 21 21 20 20 19 18 18 18 17 16 15 15 16 15 14 13 12 12 12 12 12 11 11 12 12 12 11 11 10 10 10 10 10 9 8 8 7 8 7 9 11 11 9 9 10 11 13 13 13 15 16 17 17 19 21 22 24 24 24 23 21 21 22 19 18 16 17 19 20 20 17 15 15 16 17 17 15 14
14 19 22 22 21 21 21 21 21 20 20 19 18 18 18 17 16 15 15 15 14 13 12 12 12 12 12 12 11 10 12 12 12 10 10 10 10 10 9 9 9 8 6 5 5 6 8 10 11 10 9 10 11 12 13 13 15 16 17 18 20 21 23 26 26 26 25 22 20 21 19 18 16 16 19 20 22 21 18 17 17 17 17 15 13
12 19 23 22 22 21 21 21 20 20 20 19 18 18 17 17 16 16 16 15 14 13 12 12 12 11 12 12 11 11 11 12 12 10 8 9 10 10 9 8 8 7 7 6 5 6 8 10 11 9 10 10 11 12 12 14 15 16 17 19 20 22 24 27 27 25 24 21 19 17 16 17 16 15 17 19 21 21 19 18 17 16 15 16 13
13 21 24 23 23 21 21 20 20 20 19 19 19 18 17 17 16 16 16 15 14 12 12 12 11 11 12 12 11 11 11 11 11 10 8 8 9 10 10 9 6 6 7 7 7 6 8 9 11 9 10 10 10 11 12 14 15 15 17 18 19 21 25 26 26 24 23 20 17 13 8 15 15 14 15 17 20 21 19 17 16 15 14 14 13
16 24 23 23 23 22 21 19 19 19 19 19 19 19 18 18 17 16 15 15 14 11 12 12 10 11 12 12 12 12 12 12 11 11 10 8 8 9 10 9 6 4 5 7 8 8 8 9 10 10 10 10 10 10 11 13 14 15 17 18 20 22 25 25 25 23 22 19 16 9 7 12 13 12 14 15 19 20 20 18 16 15 13 12 12
19 24 23 23 22 22 20 19 19 19 19 19 19 19 19 18 17 16 15 15 13 12 12 11 11 12 13 12 12 12 13 12 12 12 11 10 9 9 9 9 6 4 5 6 8 8 8 9 11 10 11 10 10 10 10 12 13 15 17 18 20 22 24 24 24 22 21 18 14 6 6 8 11 11 13 15 17 19 19 18 17 15 14 13 12
20 23 22 22 21 21 20 19 19 19 19 18 19 18 18 17 16 15 15 14 12 12 12 11 12 13 13 12 12 12 13 12 12 12 11 11 10 10 9 9 7 6 6 6 6 7 7 8 10 11 11 11 10 10 9 11 12 13 15 17 19 21 22 23 21 20 20 14 7 3 2 7 11 10 13 14 16 18 17 17 17 16 15 14 13
21 22 21 22 21 21 20 19 18 18 18 18 18 17 18 17 16 16 15 14 12 11 11 12 13 13 13 12 13 13 13 12 11 11 11 12 12 11 10 9 8 7 7 6 6 6 7 7 9 11 11 11 11 10 9 9 11 11 13 15 17 20 21 22 21 19 18 10 3 4 3 6 9 8 12 14 15 15 15 16 18 17 16 15 14
19 18 20 22 21 20 19 18 18 18 18 18 18 18 18 17 16 16 14 13 12 11 12 13 13 13 13 12 13 13 13 13 12 12 11 12 12 11 10 9 8 7 7 6 6 5 6 6 8 10 11 11 11 10 9 9 10 10 11 13 15 18 20 22 22 20 15 7 3 3 4 4 7 7 11 13 14 13 13 15 17 17 17 16 15
17 15 17 22 21 20 18 18 18 18 19 18 18 18 18 17 16 15 15 14 13 13 13 13 13 13 13 13 13 13 13 12 12 12 12 11 11 10 9 8 7 7 6 5 5 5 5 7 7 8 10 11 11 11 10 9 9 9 9 11 13 16 19 20 21 19 12 4 1 3 2 4 6 7 10 12 13 12 13 15 16 16 17 17 17
20 15 15 21 21 19 18 17 18 18 19 19 19 19 18 18 16 16 15 15 14 14 13 13 13 14 14 14 14 13 12 12 12 12 12 11 11 10 9 7 6 5 4 3 3 4 5 6 7 7 10 12 12 11 10 10 9 8 8 10 12 14 16 19 20 16 10 3 4 6 4 5 5 7 10 12 12 12 14 14 15 15 16 16 16
20 15 15 20 21 19 18 17 18 18 19 19 19 19 18 18 17 17 16 15 15 14 14 13 14 15 14 14 13 12 11 12 12 12 11 10 10 9 8 6 5 4 2 2 2 3 3 4 5 7 11 12 12 12 10 10 9 8 7 9 11 12 14 18 19 14 9 4 6 4 2 6 6 8 10 11 12 12 13 13 14 14 15 15 16
16 15 16 20 21 20 20 18 18 18 19 19 20 19 19 19 18 17 17 16 15 15 14 14 15 14 13 13 13 12 11 11 12 12 11 9 9 8 7 6 5 4 3 2 2 3 3 3 3 5 9 12 13 12 11 9 9 8 7 8 10 11 13 16 18 12 7 4 7 4 4 7 7 6 9 10 11 11 12 12 13 13 14 14 15
13 14 17 20 21 21 21 20 19 19 20 20 20 20 20 20 19 18 18 16 15 15 15 15 15 13 13 14 14 14 13 11 11 11 10 9 9 8 7 6 5 4 4 3 2 3 4 4 5 6 8 11 13 13 12 10 8 7 6 7 8 10 13 15 16 12 5 4 7 5 5 6 7 6 7 9 9 10 10 11 12 12 12 13 13
13 13 17 20 21 22 22 21 20 20 21 21 21 21 21 21 20 19 18 17 16 16 16 16 15 15 16 16 15 14 13 11 10 10 9 9 8 8 8 7 7 6 5 4 3 3 4 5 6 7 7 9 11 12 12 10 9 7 7 6 8 10 14 16 14 12 7 4 7 3 4 7 9 7 5 7 8 9 9 10 10 11 11 12 12
13 13 15 19 21 21 21 22 21 21 22 22 22 22 21 21 19 19 19 18 17 16 17 16 14 15 15 16 17 15 13 11 10 9 8 8 8 8 8 8 8 7 6 5 4 4 4 5 5 5 6 6 8 10 10 10 8 7 7 7 8 11 13 14 12 10 7 7 7 5 6 9 10 8 4 5 6 7 8 9 9 9 10 10 10
13 13 14 18 21 21 21 22 23 23 24 23 23 22 22 20 18 19 20 19 17 17 16 14 13 14 13 14 16 16 14 12 10 8 7 7 7 7 8 8 7 7 6 5 4 4 4 4 5 5 5 5 6 8 9 8 7 6 7 8 9 12 12 11 11 7 6 9 7 6 7 8 9 9 6 4 5 6 7 7 8 8 8 9 9
14 15 16 19 20 20 22 23 24 24 24 25 24 23 22 19 18 19 19 18 17 17 15 14 14 14 14 13 14 15 13 10 9 8 7 6 7 7 7 7 6 6 5 5 4 3 3 4 4 5 4 4 5 7 8 7 7 7 7 9 10 12 13 12 10 5 7 7 6 6 6 6 8 8 7 4 4 4 5 5 6 6 7 7 7
16 17 17 20 19 19 22 23 24 24 24 25 22 22 20 17 17 18 18 17 16 16 14 13 13 14 15 14 14 14 11 10 9 9 7 7 7 7 7 6 6 5 4 3 2 2 2 2 2 3 4 4 5 6 8 8 7 7 7 8 10 11 12 13 10 6 7 7 7 5 5 5 6 7 6 5 3 3 4 5 6 5 5 6 6
18 17 17 19 19 19 20 23 24 23 25 23 22 21 18 17 18 18 16 16 16 15 13 13 13 14 14 14 14 12 11 11 10 10 9 9 9 8 7 6 6 5 4 2 1 1 0 0 1 2 3 4 4 5 7 6 5 6 7 8 9 9 10 11 10 5 9 9 8 4 5 5 6 6 6 5 4 3 3 4 5 5 5 4 5
17 17 17 17 17 19 21 23 23 22 23 22 22 20 18 19 19 18 17 16 17 15 13 14 14 14 14 14 13 11 11 11 10 10 10 9 9 8 7 5 5 5 4 3 2 1 1 1 1 2 3 3 3 4 6 4 1 4 6 7 8 7 5 7 8 6 10 9 7 5 5 6 6 6 5 5 5 4 2 2 3 4 4 4 4
16 15 16 17 16 19 21 22 22 21 23 22 22 21 21 21 18 16 16 16 17 16 14 14 14 14 13 14 14 12 11 11 10 11 10 10 9 8 6 6 5 5 4 4 3 2 1 1 2 2 2 3 2 3 3 3 6 2 4 8 8 5 3 5 6 7 10 9 7 7 6 7 7 7 5 5 5 4 3 1 2 4 5 5 4
18 16 16 17 18 21 20 20 22 23 24 23 22 22 22 20 17 15 15 16 16 16 15 15 14 13 13 14 15 14 12 11 11 12 11 10 8 7 6 5 5 4 3 3 2 2 2 1 0 1 0 2 3 3 2 6 7 4 1 7 6 3 6 7 8 10 11 9 8 7 6 6 7 8 6 5 4 4 3 2 1 3 5 6 4
18 17 17 16 18 20 20 20 22 24 24 22 22 21 21 19 16 16 15 16 15 15 15 15 15 15 15 14 14 14 13 11 12 11 10 9 8 7 7 5 4 3 3 3 2 3 3 2 3 2 2 1 3 1 2 4 4 3 3 5 4 5 9 9 10 11 10 9 8 7 6 6 6 7 7 6 4 4 3 2 2 3 5 6 6
16 16 18 19 18 17 18 19 21 23 22 21 21 20 20 19 16 16 16 15 14 14 15 14 14 15 13 12 12 12 11 11 12 11 10 10 8 8 7 5 4 4 4 4 3 3 3 4 6 5 5 3 4 4 4 4 6 5 3 6 6 4 8 10 10 10 9 9 9 8 7 6 5 5 5 5 5 4 4 3 3 4 6 7 7
14 15 18 20 17 14 15 17 20 21 21 20 20 19 18 17 16 15 15 14 14 13 13 13 13 12 10 11 12 11 11 12 11 11 10 10 9 8 7 6 6 6 6 6 6 5 4 4 5 5 4 4 4 5 7 6 5 6 4 5 6 5 9 11 11 12 10 9 9 8 7 6 4 4 4 4 4 4 4 4 3 4 6 7 8
15 16 17 17 15 13 15 17 19 20 20 21 20 18 17 17 17 16 15 14 13 13 12 12 11 10 10 11 13 12 13 13 12 11 10 9 8 7 8 8 7 7 8 8 7 5 4 5 4 4 5 5 6 5 6 5 4 5 3 4 6 6 9 11 11 12 11 10 10 8 7 5 3 2 3 3 3 2 3 4 3 3 4 6 8
15 15 14 15 13 14 16 15 17 19 19 21 20 18 18 17 17 16 16 14 13 14 13 11 10 11 12 12 13 13 12 10 10 11 9 8 8 7 8 8 7 8 9 9 8 6 3 4 3 3 5 7 7 5 6 5 5 6 4 5 7 7 10 11 9 10 11 11 10 9 8 6 3 1 1 2 2 1 2 5 5 3 2 4 6
12 11 13 14 13 15 16 14 17 20 19 20 20 18 17 16 16 16 16 15 13 14 13 11 11 13 13 12 11 11 10 9 9 9 8 8 8 8 8 8 8 9 10 11 10 7 5 5 5 5 5 6 7 4 5 6 6 7 8 7 5 6 11 12 11 11 11 11 10 9 8 6 3 0 1 1 1 1 3 5 6 4 1 1 5
11 13 16 15 15 15 16 17 19 21 21 19 18 17 17 16 15 15 14 13 12 13 14 12 13 13 13 13 12 11 11 12 12 10 9 9 9 8 7 8 8 9 12 11 10 8 7 7 8 7 5 5 5 4 4 6 7 7 8 6 4 5 9 11 12 11 11 11 10 9 8 6 2 1 1 1 1 2 2 4 4 3 2 1 3
14 17 17 17 18 15 15 19 20 21 22 18 17 17 16 15 14 15 12 9 10 12 13 14 15 15 13 13 12 11 12 11 10 10 10 8 8 8 6 7 9 10 12 12 11 10 9 8 8 7 5 6 6 5 5 5 6 6 7 6 5 5 5 8 11 9 10 10 8 9 8 5 2 0 1 1 1 1 1 1 2 2 1 1 2
17 19 20 20 19 16 16 19 19 20 20 17 16 16 14 13 13 14 11 10 11 10 13 15 15 13 11 9 9 10 9 8 7 8 9 7 7 8 7 9 9 9 10 11 11 11 11 9 7 7 5 5 6 6 6 6 6 5 6 5 5 5 2 4 9 8 8 7 7 9 9 6 4 4 3 1 1 1 1 1 1 1 1 1 2
18 20 22 22 20 17 17 20 20 18 19 17 16 14 13 14 12 10 9 10 12 10 11 11 9 8 8 7 7 7 7 7 7 7 7 7 7 7 8 9 8 8 9 9 9 10 10 9 7 6 5 4 5 5 5 5 5 4 5 6 5 4 3 3 6 5 7 5 6 7 7 6 5 5 4 3 1 1 1 1 1 1 2 2 1
17 19 22 22 19 19 18 21 21 19 18 17 14 12 11 13 11 7 8 10 11 9 8 7 6 7 7 7 7 6 5 5 5 5 6 6 7 7 8 8 7 7 7 7 7 7 9 8 6 5 4 3 4 4 4 4 5 5 4 6 7 6 6 4 3 4 4 3 2 1 2 3 5 4 4 4 2 0 1 1 1 1 3 2 1
18 17 21 21 19 18 17 19 20 17 16 15 14 12 10 10 9 8 10 11 11 10 8 7 7 7 6 6 6 6 6 5 5 5 5 6 7 7 7 7 7 6 6 6 6 6 7 6 5 5 4 3 3 4 3 4 4 5 4 5 6 5 6 5 2 5 5 4 2 2 1 2 3 3 4 4 3 2 1 1 1 2 2 1 3
17 15 22 22 18 16 15 17 17 15 14 13 12 11 10 9 9 8 9 9 10 10 10 9 8 8 7 6 7 7 6 5 4 4 4 5 6 5 6 6 5 5 5 5 5 6 5 4 5 4 4 3 4 4 2 3 3 5 5 4 5 3 4 5 3 3 2 6 3 3 3 2 2 3 5 6 5 3 2 0 1 2 3 3 5
14 15 23 21 18 17 15 17 17 14 14 13 12 11 11 10 9 8 7 7 9 10 10 9 8 7 7 7 7 7 7 6 5 5 6 5 4 4 4 4 4 4 4 4 3 3 3 3 4 4 4 3 4 4 4 3 3 3 3 3 4 2 2 5 4 4 5 10 5 3 4 3 4 4 5 6 5 4 4 3 2 4 4 4 5
16 16 19 17 19 20 17 16 16 14 14 13 13 13 12 11 10 10 8 6 8 12 12 11 10 9 7 7 8 8 8 7 6 7 7 6 5 4 3 4 3 3 3 3 2 1 1 1 2 3 3 3 3 4 5 5 4 4 4 3 2 1 2 5 4 4 6 10 7 4 3 2 3 4 4 4 4 4 5 5 4 4 3 3 5
17 15 15 16 20 19 16 15 14 13 13 12 11 11 11 11 11 10 8 5 8 13 11 10 10 10 8 7 7 8 7 7 7 8 8 7 6 5 5 5 4 3 3 3 2 0 1 1 1 1 2 3 3 3 3 4 5 5 5 3 3 4 4 6 5 4 5 9 7 2 2 3 4 5 6 6 5 5 6 7 7 6 5 3 3
17 17 16 18 20 17 13 12 12 12 12 10 9 9 10 13 11 8 7 6 8 9 8 9 9 9 9 8 8 7 6 7 8 8 7 7 7 6 6 6 5 4 3 4 3 1 2 2 2 2 1 1 2 2 1 3 3 2 3 3 3 4 5 4 4 4 7 9 5 2 2 4 5 6 7 7 6 6 7 7 7 5 4 3 3
17 20 20 18 18 16 13 12 12 12 12 12 11 10 12 14 10 7 8 8 8 8 7 8 7 7 7 7 10 9 8 9 10 9 6 6 8 6 5 5 4 4 2 3 3 3 3 3 3 3 2 1 1 0 1 2 2 1 1 2 3 3 2 2 2 3 6 6 5 3 4 5 4 5 5 6 5 6 6 5 5 5 4 5 6
19 22 21 18 17 16 15 14 13 14 15 15 13 13 14 14 11 10 11 10 10 9 8 9 9 9 8 8 11 11 10 9 7 5 4 7 8 7 6 6 6 6 4 4 4 4 5 5 4 3 4 3 2 2 1 1 3 3 2 2 2 1 0 1 1 3 5 5 6 5 3 4 5 5 4 5 5 4 4 4 4 4 4 5 5
23 22 21 20 19 17 16 16 16 17 17 17 15 14 13 13 12 12 12 11 9 9 9 10 10 8 9 11 11 10 10 10 6 4 4 6 8 8 7 5 7 9 6 5 6 6 5 3 2 4 4 3 3 3 2 2 2 4 3 2 3 3 2 3 3 6 7 6 7 7 6 6 6 6 6 6 6 4 4 5 5 3 2 3 3
25 23 21 19 19 19 19 19 19 18 18 18 17 15 13 11 9 9 11 10 9 10 9 10 10 9 10 11 10 10 9 10 9 6 5 6 9 10 8 6 8 8 6 6 7 7 4 3 5 6 5 5 4 3 3 4 2 2 3 2 2 3 4 5 5 7 8 7 7 8 9 8 7 7 7 6 5 4 4 5 4 3 2 2 3
28 25 23 21 21 23 23 23 21 19 20 19 17 14 12 10 8 8 9 9 9 10 9 10 10 10 11 11 10 10 9 9 9 6 5 7 10 11 10 8 8 8 7 7 7 7 4 3 6 6 6 7 6 5 5 5 4 3 2 3 2 1 4 5 5 7 9 9 7 7 9 9 8 8 7 6 5 4 5 5 4 5 5 4 4
29 26 26 25 24 24 25 24 21 20 21 19 17 14 11 10 9 8 9 8 9 11 12 12 11 10 10 10 9 9 8 7 7 6 6 8 10 12 14 13 9 5 5 6 6 7 6 5 6 6 7 8 8 8 8 7 7 6 5 5 5 5 4 4 4 6 8 10 10 9 9 9 9 10 9 9 9 8 7 7 7 7 7 6 5
29 27 28 27 25 24 23 23 21 20 20 18 17 15 13 12 11 10 9 10 12 13 13 12 11 11 10 11 10 10 10 9 9 8 8 8 8 11 14 15 13 9 7 6 6 8 8 6 6 7 7 8 9 10 10 10 11 11 10 11 11 11 9 6 5 7 9 11 11 12 12 11 12 14 13 12 12 12 10 10 9 8 7 6 5
28 28 29 28 27 25 23 23 23 22 21 20 19 17 16 16 14 11 11 12 13 13 13 12 13 13 12 12 10 9 10 10 10 10 10 9 8 9 12 13 13 11 9 9 9 9 10 9 8 8 8 9 10 12 13 13 12 13 12 12 13 12 11 10 9 9 10 10 12 14 14 14 16 16 15 14 13 13 12 11 9 9 8 6 5
27 29 30 29 27 26 26 28 28 25 24 23 20 17 17 16 15 14 12 13 13 14 14 14 14 14 12 10 9 9 9 9 9 9 8 9 8 9 10 11 12 12 11 11 10 10 11 11 10 10 9 10 10 12 14 13 12 13 12 11 11 10 11 12 11 12 12 11 14 16 15 16 17 16 14 13 13 14 14 11 9 9 10 8 7
Wind_Direction
159 163 162 161 155 148 147 143 143 142 142 143 144 146 148 150 150 152 150 146 142 135 130 123 117 112 108 102 101 101 104 115 122 123 124 124 126 126 123 121 118 119 117 118 121 121 124 120 114 108 101 99 108 113 111 108 101 94 89 84 81 81 82 81 77 72 67 60 55 53 58 61 59 60 62 65 63 65 76 75 81 102 104 98 99
158 163 162 161 156 150 147 145 145 142 143 144 146 149 151 154 155 155 151 149 144 139 134 127 121 115 113 108 106 109 110 114 120 122 122 124 129 132 133 129 127 124 115 117 121 123 127 120 114 109 101 103 112 111 107 100 93 88 85 84 81 80 81 79 76 72 66 60 55 48 50 54 53 59 64 63 59 59 72 82 92 101 102 100 99
152 160 161 161 157 151 147 145 144 142 144 145 148 151 154 157 158 157 153 151 147 144 138 129 124 119 117 113 113 117 119 119 120 122 122 124 127 134 140 140 141 138 128 125 128 136 132 122 118 112 104 106 112 108 102 95 90 86 85 86 85 84 82 78 73 68 61 54 50 43 42 46 48 57 60 57 53 56 72 85 96 103 106 108 102
153 160 160 160 156 151 147 145 144 143 145 147 151 153 157 159 159 159 156 154 151 148 139 132 126 123 122 118 119 123 127 126 124 124 125 125 125 131 138 147 152 153 154 145 140 150 140 129 125 117 110 108 109 106 100 93 89 86 86 88 89 87 82 77 71 68 64 55 44 35 28 34 47 55 57 55 51 52 69 85 96 105 112 115 103
156 161 160 158 154 151 148 146 145 144 146 149 152 155 158 161 162 161 160 158 155 148 139 136 127 126 126 123 125 128 131 130 130 128 129 128 128 131 136 146 154 162 170 171 169 161 150 139 130 124 118 112 110 109 102 93 88 86 87 91 92 87 82 76 73 70 69 65 57 46 13 16 42 53 56 59 54 52 63 78 89 100 110 109 98
161 161 161 157 154 151 148 147 145 145 147 150 153 157 160 164 165 164 163 159 156 149 142 140 130 131 129 127 132 133 135 135 135 134 135 133 134 138 139 145 154 167 174 185 189 174 159 147 137 133 127 119 114 110 103 94 89 88 88 92 91 86 83 78 75 72 71 70 67 69 359 1 34 50 59 62 59 55 59 70 80 90 104 100 99
161 160 160 158 154 150 149 148 146 146 147 150 154 158 163 166 167 165 164 160 159 150 146 144 134 134 130 131 137 139 141 140 140 139 141 139 141 145 144 150 161 165 165 187 193 181 166 154 147 142 136 127 117 110 103 98 94 92 90 92 91 88 86 81 77 74 73 70 67 73 326 353 28 45 61 64 62 59 58 65 73 82 94 94 102
158 161 161 159 156 152 150 149 148 148 148 150 153 158 163 166 166 164 161 161 161 153 150 147 139 136 132 135 139 141 142 143 145 144 145 146 149 149 150 155 158 147 138 168 185 183 173 161 157 152 145 138 126 117 108 104 100 96 95 95 94 92 89 84 79 76 72 66 71 83 313 355 28 40 63 67 64 63 60 64 70 75 83 88 95
157 163 164 161 157 155 152 152 151 149 149 149 153 156 159 161 162 160 160 163 162 156 154 150 144 140 137 139 140 140 141 144 148 147 146 147 150 149 151 153 149 142 132 142 165 178 179 170 166 163 154 146 139 129 121 113 108 102 100 99 96 93 89 86 81 79 80 71 78 131 310 20 25 33 63 69 65 62 60 64 70 72 77 85 91
155 165 166 163 159 158 155 153 151 150 151 150 153 153 155 158 158 158 160 163 163 161 158 154 149 144 143 143 142 139 139 142 142 143 146 146 148 149 149 152 149 145 139 138 148 168 182 181 176 173 162 153 149 142 135 123 115 109 105 103 97 92 90 87 81 76 78 74 85 174 232 356 5 36 67 70 69 64 61 63 67 70 75 80 87
153 167 167 164 162 160 156 154 153 152 153 151 152 152 153 155 155 157 158 162 164 163 162 159 154 149 149 148 144 139 137 138 139 143 148 148 149 151 150 151 152 149 144 142 148 165 182 191 191 179 167 161 157 152 147 136 125 117 112 106 98 94 92 89 85 78 72 69 75 172 203 334 3 61 72 75 77 73 68 65 65 68 74 77 82
149 165 170 166 161 159 158 157 156 154 154 153 152 151 152 152 154 157 160 164 165 165 165 163 158 154 154 153 146 139 140 140 141 146 150 152 150 150 150 152 154 150 144 140 148 162 181 199 205 182 170 173 168 162 158 149 137 125 118 109 104 99 94 90 89 87 81 85 305 275 254 345 15 74 79 81 83 80 77 70 67 66 70 76 80
151 162 169 165 160 159 162 160 158 157 156 155 153 151 151 152 155 159 162 166 167 168 167 165 159 157 158 154 147 145 147 143 141 146 150 152 150 150 151 156 156 149 146 137 144 163 178 200 207 185 178 184 179 173 169 161 151 135 126 117 110 105 102 96 90 90 92 120 244 272 290 337 20 80 82 85 85 81 78 75 72 68 68 71 77
160 164 160 164 162 160 163 161 161 160 159 157 154 152 152 154 158 161 164 168 169 169 169 165 162 161 159 153 148 149 151 146 142 145 150 152 150 151 153 158 155 150 156 135 125 141 164 189 195 188 189 192 189 187 181 173 162 147 136 125 115 111 109 101 92 91 102 165 239 257 321 354 25 73 78 82 83 80 79 78 77 73 71 69 71
164 162 157 164 164 161 164 164 164 163 162 158 155 155 156 159 161 164 167 171 171 171 171 168 164 162 157 151 149 152 154 150 144 143 146 150 152 152 154 159 156 153 161 147 129 117 115 135 152 178 194 198 197 196 196 191 177 161 149 132 120 115 111 104 100 100 113 194 250 282 319 345 12 57 75 78 79 80 81 79 79 78 77 73 72
166 160 158 164 166 166 165 166 167 165 163 159 158 160 163 165 165 169 172 173 173 174 173 171 166 157 152 152 155 157 155 151 147 143 142 147 150 151 152 152 150 147 152 152 154 135 118 132 147 160 183 201 203 203 204 207 197 177 166 145 129 121 112 105 106 110 119 244 271 303 319 342 8 28 69 80 81 82 83 83 82 81 82 80 78
166 163 160 164 169 168 166 168 168 167 164 161 163 167 169 170 168 172 175 175 176 177 177 176 165 154 156 157 159 159 154 153 150 146 142 143 145 146 146 143 141 137 139 142 142 139 136 144 152 159 174 196 205 207 207 212 214 197 188 166 141 130 118 111 111 117 129 245 266 295 341 351 1 3 51 78 83 88 84 82 84 83 85 85 84
159 163 162 164 170 169 168 169 168 168 165 165 170 172 171 169 168 174 177 177 178 180 181 175 159 155 163 160 157 157 155 154 148 147 145 142 143 144 145 145 142 139 136 134 133 135 137 135 145 163 174 186 195 201 204 209 214 208 195 176 154 141 129 121 111 114 150 223 252 276 304 332 350 351 13 62 77 90 87 82 84 85 87 87 89
154 162 165 168 171 171 172 170 169 170 168 171 174 173 172 172 175 177 177 180 180 181 179 167 154 157 164 159 157 157 154 151 147 151 151 148 149 150 151 152 147 145 143 139 137 130 127 129 135 151 174 181 178 183 191 198 203 205 187 170 157 145 139 125 105 116 200 224 235 271 286 319 341 342 346 30 65 81 90 87 86 86 89 89 89
160 166 166 169 174 175 174 171 170 171 172 174 176 179 178 179 183 178 176 180 181 180 176 164 157 163 166 166 166 157 152 155 157 155 158 165 168 166 162 159 156 152 149 147 145 135 131 133 132 142 165 181 178 178 185 193 197 197 182 167 157 151 146 123 109 158 218 232 233 262 280 313 335 337 340 357 35 64 90 96 93 88 89 90 88
169 173 170 170 174 177 177 174 172 175 176 176 179 184 183 183 180 175 176 179 182 180 174 165 162 169 171 173 168 156 158 169 167 161 170 183 184 182 176 170 165 159 157 155 156 149 141 131 132 144 154 177 185 181 182 191 197 196 187 172 160 160 157 133 123 189 219 239 244 264 289 314 339 336 332 341 359 25 72 98 106 96 89 91 90
175 180 179 177 176 177 180 175 174 178 179 179 183 184 184 184 178 175 178 178 180 180 172 167 169 174 175 172 161 156 166 176 175 170 180 191 191 192 188 182 172 168 171 176 208 219 242 180 166 176 181 193 191 190 179 166 184 201 194 178 164 166 171 149 134 196 232 246 255 270 306 321 340 341 336 338 343 348 42 88 108 114 104 96 93
179 184 181 184 187 182 180 177 179 184 182 181 183 182 180 180 178 177 178 178 180 179 172 171 178 180 178 172 160 161 171 178 184 177 184 193 193 198 196 194 185 183 185 190 225 231 235 226 203 206 207 205 199 203 179 141 146 210 208 186 154 144 166 162 145 192 229 245 260 264 299 314 327 339 349 344 337 340 2 65 98 126 131 120 107
175 187 185 186 193 190 183 181 185 188 186 183 183 181 176 178 179 178 176 178 181 180 173 171 181 184 182 173 159 161 170 177 186 183 190 197 197 202 205 207 202 197 195 203 223 242 249 226 204 206 228 204 139 104 138 273 301 326 218 188 145 125 180 189 179 203 229 246 257 257 276 294 314 323 342 353 340 335 339 9 97 127 147 148 132
173 191 193 182 185 194 189 182 183 185 185 182 182 180 177 177 176 179 179 180 184 181 172 171 181 184 182 172 157 159 169 178 186 189 192 195 198 204 216 223 223 218 212 227 233 289 306 287 281 120 274 185 130 68 143 236 280 343 277 186 157 186 189 187 203 214 228 244 253 259 273 288 308 312 323 344 342 333 326 306 162 135 153 164 157
178 190 189 181 182 191 190 185 184 186 183 177 181 183 179 176 172 182 183 181 185 180 173 173 177 176 178 173 162 163 172 185 190 191 191 195 201 206 221 229 237 248 239 258 269 304 315 299 300 317 321 223 167 263 234 208 247 292 286 225 217 202 184 189 206 218 229 240 254 264 276 291 307 311 319 333 338 330 319 293 218 166 161 170 173
183 187 185 186 184 184 186 188 186 183 177 174 184 184 178 174 174 182 180 178 181 177 171 171 171 170 175 175 173 173 177 190 191 192 196 199 205 206 218 225 225 238 237 239 242 256 273 282 285 278 280 253 196 206 228 236 237 227 229 252 251 200 202 207 203 220 229 233 249 260 272 286 307 315 323 336 338 330 317 294 247 195 177 177 180
179 184 187 189 185 182 182 181 178 177 172 171 182 181 176 173 176 179 172 171 169 165 166 168 171 170 176 179 181 182 176 180 183 192 198 198 209 212 213 218 214 217 222 221 225 231 239 275 290 284 268 248 239 218 204 214 223 217 212 245 240 202 226 224 209 222 224 224 244 253 263 273 295 318 330 343 343 333 319 298 264 216 192 186 187
182 192 188 182 181 183 180 175 172 174 169 166 175 177 173 170 172 170 161 161 155 159 169 169 175 178 185 192 193 190 180 176 180 195 203 200 209 214 213 216 212 211 216 218 227 236 244 266 286 293 268 245 256 248 226 208 176 206 228 249 234 206 230 236 218 220 223 224 237 245 253 262 274 322 346 353 0 347 325 316 292 246 209 193 188
193 201 183 172 178 173 170 174 170 170 166 164 170 171 169 166 165 162 156 156 156 166 173 168 180 190 191 201 205 197 189 186 186 194 204 208 210 213 219 225 223 218 220 224 232 238 246 254 254 260 248 237 241 245 254 230 168 178 193 228 232 210 228 243 228 215 221 221 224 235 242 249 253 317 11 18 32 17 329 329 321 296 236 196 180
196 188 165 164 177 168 160 167 163 161 162 160 164 164 162 160 161 164 158 154 155 164 170 170 181 188 190 200 209 201 196 206 204 199 207 222 224 221 226 228 224 220 222 230 238 240 244 252 248 240 230 228 233 234 236 221 198 188 189 206 215 217 228 235 229 219 225 223 220 228 225 228 235 180 64 53 37 354 333 335 332 318 289 191 175
182 162 156 161 177 173 158 161 157 154 156 152 150 154 155 157 164 165 155 154 159 164 171 180 186 193 198 195 194 195 197 205 204 200 206 217 224 225 231 228 221 219 225 234 242 242 243 249 244 238 234 231 233 230 218 209 205 197 204 208 181 214 232 231 230 224 226 226 216 215 211 207 203 99 56 26 20 0 344 336 339 338 339 9 165
171 159 157 161 171 169 156 162 162 154 154 150 143 147 151 152 162 162 156 165 167 167 176 186 191 196 198 186 179 189 199 203 195 191 197 201 218 227 226 224 223 225 230 235 241 246 250 249 237 227 231 239 238 237 239 220 205 206 220 218 188 197 221 226 228 227 224 220 207 203 197 182 175 242 272 347 32 41 32 325 333 2 350 6 140
170 156 156 160 163 164 154 156 159 153 155 158 150 146 147 144 158 165 164 173 169 174 187 186 186 185 185 182 179 187 200 207 199 194 194 199 219 223 209 213 225 227 228 231 236 246 253 249 235 226 226 236 240 242 245 224 210 217 209 209 214 203 222 209 202 226 238 218 205 196 183 176 201 225 215 192 110 73 32 6 320 354 61 89 119
158 145 153 158 160 163 151 141 144 148 154 162 153 147 152 151 162 169 163 176 175 178 187 179 172 170 170 169 168 176 187 195 202 201 197 203 213 211 206 210 217 220 223 228 232 241 245 242 235 230 231 232 237 242 241 221 208 220 201 204 224 205 233 218 168 221 260 238 228 203 172 181 211 227 222 216 175 84 29 16 314 247 164 133 117
133 141 153 153 158 161 149 141 142 144 148 154 149 151 157 151 160 170 171 182 172 165 173 160 145 149 148 145 147 157 163 166 180 191 190 194 198 204 208 206 205 213 223 228 228 232 234 237 239 237 246 240 236 241 240 237 227 237 223 205 225 213 208 223 159 207 223 177 217 183 122 191 217 236 239 238 241 105 49 44 21 160 176 160 106
126 149 153 152 166 164 150 147 146 142 144 151 151 157 160 147 154 168 178 179 157 148 151 141 135 132 129 130 132 131 134 136 148 169 178 179 185 197 203 200 203 208 215 220 221 226 227 240 253 250 254 242 244 255 238 251 249 247 242 201 229 237 207 226 245 215 191 122 74 38 112 205 214 215 224 239 242 231 261 20 42 82 138 103 67
138 152 143 150 168 166 152 146 144 142 141 144 142 151 156 146 151 162 171 161 139 135 136 133 130 124 121 117 115 116 116 113 120 137 148 162 175 187 196 199 205 206 201 208 221 229 229 251 265 259 266 255 247 260 239 252 260 242 240 208 207 224 225 243 266 254 137 100 72 43 105 159 212 220 229 232 229 229 232 239 94 103 97 80 69
149 137 130 145 163 162 157 146 144 146 141 140 141 149 152 139 137 136 126 120 117 115 111 109 107 105 110 108 104 108 111 106 106 120 128 143 168 180 197 199 199 197 186 198 220 230 234 254 259 257 265 262 245 247 241 252 278 263 256 237 206 178 253 269 289 321 52 84 82 53 86 138 195 217 228 220 219 226 220 211 165 133 108 81 76
152 133 130 153 164 161 161 149 145 147 144 148 150 151 150 131 118 109 104 108 103 96 87 83 82 74 80 98 105 108 112 115 118 127 126 131 149 149 171 181 178 180 170 177 195 207 240 256 265 264 251 240 234 238 242 251 280 294 286 262 253 312 285 287 298 318 43 75 84 94 123 162 181 191 195 196 209 217 218 218 198 173 164 118 92
155 140 142 162 160 155 161 156 149 150 146 151 150 146 140 118 108 111 121 121 98 102 108 112 111 103 101 100 98 101 111 115 113 116 114 118 125 118 126 136 132 136 128 117 127 165 317 0 343 260 229 213 212 218 240 256 263 275 280 279 305 317 299 298 304 328 46 80 85 86 158 173 182 174 167 177 196 207 217 219 215 213 208 175 124
158 142 146 159 155 149 160 161 156 154 149 150 146 140 128 110 109 123 122 94 86 106 124 131 137 137 135 122 103 101 102 95 88 93 101 111 113 104 103 106 106 111 108 108 107 92 89 64 48 60 100 175 198 212 241 263 248 245 277 295 297 279 275 290 296 336 41 78 80 358 58 115 163 168 172 183 187 197 207 213 219 218 212 214 197
160 144 144 154 154 152 162 166 159 154 153 151 144 139 127 114 120 133 117 109 121 132 124 118 123 120 124 124 112 100 79 71 76 89 103 108 103 100 104 113 116 110 102 103 85 42 61 59 39 55 65 103 136 164 262 258 254 217 199 255 264 256 247 262 286 352 28 59 69 49 49 67 112 140 166 185 183 192 198 204 221 219 212 219 213
163 150 147 155 162 164 166 167 162 157 155 152 150 150 138 132 144 146 139 157 166 153 128 112 111 110 114 114 110 106 100 98 100 107 116 111 107 102 101 119 127 112 96 96 100 70 51 35 12 43 48 42 93 106 67 234 232 218 164 165 219 253 102 172 138 55 50 60 73 81 80 81 98 108 131 159 166 176 176 174 189 204 210 217 223
160 157 153 157 166 172 169 165 165 163 160 157 160 160 152 151 158 158 163 176 167 143 125 112 115 124 119 110 108 112 117 115 107 87 89 105 115 110 96 102 116 111 105 101 102 100 98 86 55 70 61 44 92 117 100 97 191 212 181 155 190 191 154 140 118 86 80 88 89 87 91 99 108 111 125 148 158 159 149 146 152 171 208 205 211
156 159 157 159 168 175 173 168 169 168 163 162 166 165 159 156 159 170 174 165 142 134 131 123 126 125 111 113 120 119 124 135 138 131 114 108 107 102 89 69 71 79 91 101 93 88 102 125 103 98 90 72 86 117 131 122 117 178 175 164 189 179 142 124 123 114 102 102 102 93 92 97 103 107 122 140 146 148 133 127 142 148 148 171 191
155 160 159 160 165 170 171 170 172 171 166 166 167 165 160 159 160 170 163 144 139 144 142 142 148 144 133 141 147 136 141 157 156 151 134 125 118 115 112 90 61 46 60 88 105 106 90 82 101 108 98 90 93 103 119 120 102 99 117 130 149 159 135 124 130 130 118 111 111 105 101 102 104 99 101 112 116 131 131 123 136 133 130 158 186
157 161 163 162 161 164 168 170 174 172 166 163 159 155 156 160 154 146 140 146 166 164 156 160 163 156 143 138 135 127 128 128 119 108 104 117 126 130 129 117 103 92 89 98 120 123 115 111 114 111 104 103 100 97 102 101 96 94 90 92 82 68 92 113 121 127 124 119 111 104 103 104 105 99 92 93 91 96 106 111 118 120 128 148 160
160 166 168 167 162 163 170 173 174 170 164 160 157 154 153 150 143 139 152 183 190 174 164 167 158 141 132 132 136 136 135 129 118 106 94 95 112 132 135 126 122 125 118 110 108 104 103 104 110 114 108 103 99 95 95 94 92 86 78 80 79 73 74 77 94 115 121 122 117 111 108 101 98 94 88 87 84 83 86 94 106 112 119 132 138
168 171 173 173 168 166 171 171 171 170 166 162 162 161 154 147 144 154 185 202 190 174 168 165 151 144 149 156 157 151 145 140 133 123 113 106 105 123 136 133 126 117 101 92 87 89 91 81 86 106 107 102 102 100 93 90 89 83 73 73 76 75 72 68 82 108 117 125 130 125 116 108 104 96 88 87 84 81 80 82 94 101 104 114 121
172 174 177 177 172 170 169 167 168 171 171 165 164 164 156 151 151 161 195 202 181 175 175 165 158 158 158 155 151 151 153 152 146 141 137 130 119 118 129 132 125 115 105 95 86 89 98 94 93 104 114 114 114 114 108 99 97 96 87 80 78 81 81 67 69 96 111 121 128 125 118 112 109 103 97 93 83 81 80 74 76 90 96 101 107